Aérodrome :
LOGIN :

S'inscrire | Disclaimer

   EN    FR    IT 

 










Légende :    VFR   VFR Marginal   IFR   IFR Intensif   IFR Très Intensif
Visi : 
Plafond : 
>= 8 km
>= 3000ft
5 à 8 km
1000 à 3000 ft
1500m à 5 km
500 à 1000 ft
800 à 1500m
200 à 500 ft
< 800m
< 200 ft
Symboles :   Orages  Brouillard  Fortes neiges  Fortes précipitations  Vent > 20 kt
SIGMETs :   Divers  Orages  Givrage  Turbulence  Onde Orograph.  Cendres Volcan.







- Altitude de l'aérodrome : 479 ft
- Code IATA : DOL
- Voir les cartes d'approche


LFRG - Deauville

DERNIER METAR :
  • 212230Z AUTO 20010KT 9999 -RA ///TCU 17/11 Q1008

METARs EXPIRÉS :
  • 212200Z AUTO 21012KT 9999 ///TCU 18/11 Q1008
  • 212130Z AUTO 20010KT CAVOK 18/11 Q1008
  • 212100Z AUTO 20008KT CAVOK 18/11 Q1008
  • 212030Z AUTO 20008KT CAVOK 19/11 Q1008
  • 212000Z AUTO 20010KT CAVOK 19/11 Q1008 TEMPO 20015G25KT

TAF TAF LFRG
Valide du 21 à 15h jusqu'au 22 à 00h UTC


211400Z 2115/2124 20010KT 9999 BKN040
TEMPO 2118/2121 20015G25KT
TEMPO 2122/2124 3000 RA BKN010 SCT015CB
BECMG 2121/2124 25007KT
ATIS : +33 2 31 65 65 36
Pas de NOTAMs connus pour ce terrain.



MET'MAP, la Météo Aéronautique d'un coup d'oeil ! - Copyright ORBIFLY Décembre 2007 - Disclaimer

ORBIFLY MET'MAP TEAM :

Programmation & Développement : Alexandra Zaïnal
Conception & Développement : Baudouin d'Aumeries
Co-Programmation & Développement : Marc-Olivier Méhu
Soutien technique & logistique : Manuel Goepfert

Contact : metmap@orbifly.com




SOURCES & CREDITS :

   NOAA